OBJECT BQ, 60530

Orbit data source: Space-Track

You're viewing an Uncataloged Satellite

Recently launched and/or uncataloged satellites may have evolving metadata. Metadata may include but not limited to: Owner, Maufacturer, Bus, Motor, and Mission.

OBJECT BQ, 60530 is a satellite in SSO that was launched on Fri, 16 Aug 2024 UTC via an FALCON 9 launch vehicle from the Air Force Western Test Range (AFWTR). Unknown objects in Earth's orbit typically refer to objects detected orbiting the Earth but have not yet been identified or cataloged. These objects could be anything from previously untracked satellites, spent rocket stages, debris from satellite collisions, or even natural meteoroids temporarily captured by Earth's gravity.

Loading next visibility...
Identifier
60530, 2024-149BQ
Orbit
SSO
Country
Flag of TBDTBD
Related business
Manufacturer
NANAV/PYRAS
Mission
Operational Civil Imaging
Bus & Motor
CUBESAT 3U, Unknown motor
Mass
5 kg wet, 5 kg dry
Launch date (UTC)
2024-08-16 (2 years ago)
Launch vehicle
FALCON 9
Launch site
Air Force Western Test Range (AFWTR)
Object type
Unknown
Shape & HBR
Box, 0.1 m
Radar Cross Section
0.080 m², Small (<0.1 m²)

Expand to show TLE details & history
Last TLE update: 16 hours ago

TLE from 16 hours ago
0 OBJECT BQ
1 60530U 24149BQ  26125.77652170  .00001575  00000-0  14448-3 0  9997
2 60530  97.6794 201.2391 0001844  95.8211 264.3220 14.96274222 93616
Epoch: 2026-05-05T18:38Z
TLE epoch observation values (Epoch: 2026-05-05T18:38:11.474Z)
Latitude
-0.00012°
Longitude
58.0448°
Altitude
581.598 km
Speed
7.57 km/s
True Right ascension
13h 24m 57s
True Declination
0° 00' 00"
Sunlit
Object was in full shadow at epoch
Visualization orbit readout
Latitude
Unknown
Longitude
Unknown
Altitude
Unknown
Speed
Unknown
Apparent Right ascension
Unknown
Apparent Declination
Unknown
Sunlit
N/A
Visualization observer readout
Local Sidereal Time
18:24:04
Azimuth
Unknown
Elevation
Unknown
Doppler factor
Unknown
Orbital elements
Apogee altitude
576.712 km
Perigee altitude
574.148 km
Semi-major axis
6,953.567 km
Eccentricity
0.00018
Inclination
97.6794°
RAAN
201.2391°
Arg. of periapsis
95.8211°
True anomaly
264.30097°
Mean anomaly
264.322°
Eccentric anomaly
264.31149°
Mean motion
3.7431 °/min
Orbital period
96.18 mins
BSTAR
0.00014448
Loading maneuver chart data...
Computing Atmospheric mass density...
Loading historical data...
Loading historical data...
Loading historical data...
Loading historical data...
Loading historical data...
Loading historical data...
Loading historical data...

Documentation

Showing up to 5 results
|